Time,TemperatureF,DewpointF,PressureIn,WindDirection,WindDirectionDegrees,WindSpeedMPH,WindSpeedGustMPH,Humidity,HourlyPrecipIn,Conditions,Clouds,dailyrainin,SoftwareType,DateUTC
2013-01-20 00:02:00,40.0,37.0,-100.00,SW,225,6.0,8.0,88,-99.99,,,-99.99,,2013-01-20 06:02:00,
2013-01-20 00:12:00,40.0,37.0,-100.00,SW,225,5.0,8.0,88,-99.99,,,-99.99,,2013-01-20 06:12:00,
2013-01-20 00:22:00,41.0,37.0,-100.00,SW,225,6.0,8.0,85,-99.99,,,-99.99,,2013-01-20 06:22:00,
2013-01-20 00:33:00,41.0,37.0,-100.00,SW,225,6.0,9.0,85,-99.99,,,-99.99,,2013-01-20 06:33:00,
2013-01-20 00:42:00,41.0,37.0,-100.00,SW,225,7.0,8.0,84,-99.99,,,-99.99,,2013-01-20 06:42:00,
2013-01-20 00:52:00,41.0,37.0,-100.00,SW,225,7.0,9.0,84,-99.99,,,-99.99,,2013-01-20 06:52:00,
2013-01-20 01:02:00,41.0,37.0,-100.00,SW,225,7.0,9.0,83,-99.99,,,-99.99,,2013-01-20 07:02:00,
2013-01-20 01:12:00,41.0,36.0,-100.00,SW,225,6.0,8.0,84,-99.99,,,-99.99,,2013-01-20 07:12:00,
2013-01-20 01:22:00,41.0,36.0,-100.00,SW,225,6.0,7.0,84,-99.99,,,-99.99,,2013-01-20 07:22:00,
2013-01-20 01:32:00,40.0,36.0,-100.00,SW,225,5.0,7.0,86,-99.99,,,-99.99,,2013-01-20 07:32:00,
2013-01-20 01:42:00,40.0,36.0,-100.00,SW,225,5.0,7.0,86,-99.99,,,-99.99,,2013-01-20 07:42:00,
2013-01-20 01:52:00,40.0,36.0,-100.00,SW,225,5.0,6.0,87,-99.99,,,-99.99,,2013-01-20 07:52:00,
2013-01-20 02:02:00,40.0,36.0,-100.00,SW,225,4.0,5.0,87,-99.99,,,-99.99,,2013-01-20 08:02:00,
2013-01-20 02:12:00,39.0,36.0,-100.00,WSW,247,3.0,5.0,88,-99.99,,,-99.99,,2013-01-20 08:12:00,
2013-01-20 02:22:00,39.0,36.0,-100.00,SW,225,3.0,4.0,89,-99.99,,,-99.99,,2013-01-20 08:22:00,
2013-01-20 02:32:00,38.0,36.0,-100.00,SW,225,3.0,4.0,90,-99.99,,,-99.99,,2013-01-20 08:32:00,
2013-01-20 02:42:00,39.0,36.0,-100.00,SW,225,3.0,4.0,90,-99.99,,,-99.99,,2013-01-20 08:42:00,
2013-01-20 02:52:00,38.0,36.0,-100.00,WSW,247,3.0,4.0,90,-99.99,,,-99.99,,2013-01-20 08:52:00,
2013-01-20 03:02:00,38.0,36.0,-100.00,SW,225,3.0,4.0,90,-99.99,,,-99.99,,2013-01-20 09:02:00,
2013-01-20 03:12:00,38.0,36.0,-100.00,West,270,0.0,-999.0,90,-99.99,,,-99.99,,2013-01-20 09:12:00,
2013-01-20 03:22:00,38.0,36.0,-100.00,West,270,0.0,-999.0,90,-99.99,,,-99.99,,2013-01-20 09:22:00,
2013-01-20 03:33:00,38.0,35.0,-100.00,NNW,337,0.0,-999.0,90,-99.99,,,-99.99,,2013-01-20 09:33:00,
2013-01-20 03:42:00,37.0,35.0,-100.00,WSW,247,2.0,3.0,90,-99.99,,,-99.99,,2013-01-20 09:42:00,
2013-01-20 03:52:00,38.0,35.0,-100.00,WNW,292,2.0,3.0,91,-99.99,,,-99.99,,2013-01-20 09:52:00,
2013-01-20 04:02:00,38.0,35.0,-100.00,WNW,292,3.0,4.0,90,-99.99,,,-99.99,,2013-01-20 10:02:00,
2013-01-20 04:12:00,38.0,35.0,-100.00,WNW,292,2.0,4.0,88,-99.99,,,-99.99,,2013-01-20 10:12:00,
2013-01-20 04:22:00,38.0,35.0,-100.00,West,270,0.0,-999.0,86,-99.99,,,-99.99,,2013-01-20 10:22:00,
2013-01-20 04:32:00,38.0,34.0,-100.00,West,270,1.0,3.0,87,-99.99,,,-99.99,,2013-01-20 10:32:00,
2013-01-20 04:42:00,38.0,35.0,-100.00,WNW,292,2.0,4.0,86,-99.99,,,-99.99,,2013-01-20 10:42:00,
2013-01-20 04:52:00,38.0,34.0,-100.00,WNW,292,2.0,3.0,86,-99.99,,,-99.99,,2013-01-20 10:52:00,
2013-01-20 05:02:00,37.0,34.0,-100.00,NW,315,2.0,4.0,88,-99.99,,,-99.99,,2013-01-20 11:02:00,
2013-01-20 05:12:00,37.0,34.0,-100.00,WNW,292,0.0,-999.0,88,-99.99,,,-99.99,,2013-01-20 11:12:00,
2013-01-20 05:22:00,37.0,34.0,-100.00,NW,315,0.0,-999.0,89,-99.99,,,-99.99,,2013-01-20 11:22:00,
2013-01-20 05:32:00,38.0,34.0,-100.00,NW,315,1.0,3.0,88,-99.99,,,-99.99,,2013-01-20 11:32:00,
2013-01-20 05:42:00,38.0,34.0,-100.00,NNW,337,2.0,4.0,86,-99.99,,,-99.99,,2013-01-20 11:42:00,
2013-01-20 05:53:00,38.0,34.0,-100.00,East,90,2.0,4.0,84,-99.99,,,-99.99,,2013-01-20 11:53:00,
2013-01-20 06:03:00,39.0,34.0,-100.00,East,90,2.0,4.0,81,-99.99,,,-99.99,,2013-01-20 12:03:00,
2013-01-20 06:12:00,40.0,33.0,-100.00,East,90,3.0,5.0,78,-99.99,,,-99.99,,2013-01-20 12:12:00,
2013-01-20 06:22:00,40.0,34.0,-100.00,East,90,3.0,6.0,76,-99.99,,,-99.99,,2013-01-20 12:22:00,
2013-01-20 06:33:00,40.0,33.0,-100.00,East,90,3.0,4.0,76,-99.99,,,-99.99,,2013-01-20 12:33:00,
2013-01-20 06:43:00,40.0,33.0,-100.00,East,90,5.0,8.0,78,-99.99,,,-99.99,,2013-01-20 12:43:00,
2013-01-20 06:52:00,39.0,33.0,-100.00,East,90,4.0,7.0,77,-99.99,,,-99.99,,2013-01-20 12:52:00,
2013-01-20 07:02:00,39.0,32.0,-100.00,East,90,5.0,7.0,77,-99.99,,,-99.99,,2013-01-20 13:02:00,
2013-01-20 07:12:00,38.0,32.0,-100.00,NNE,22,4.0,6.0,78,-99.99,,,-99.99,,2013-01-20 13:12:00,
2013-01-20 07:23:00,38.0,32.0,-100.00,NNE,22,3.0,7.0,78,-99.99,,,-99.99,,2013-01-20 13:23:00,
2013-01-20 07:33:00,37.0,31.0,-100.00,NNE,22,3.0,5.0,80,-99.99,,,-99.99,,2013-01-20 13:33:00,
2013-01-20 07:42:00,37.0,31.0,-100.00,NNE,22,3.0,4.0,80,-99.99,,,-99.99,,2013-01-20 13:42:00,
2013-01-20 07:52:00,37.0,32.0,-100.00,NNE,22,3.0,4.0,80,-99.99,,,-99.99,,2013-01-20 13:52:00,
2013-01-20 08:02:00,37.0,32.0,-100.00,NNE,22,3.0,4.0,82,-99.99,,,-99.99,,2013-01-20 14:02:00,
2013-01-20 08:12:00,38.0,32.0,-100.00,NE,45,1.0,3.0,79,-99.99,,,-99.99,,2013-01-20 14:12:00,
2013-01-20 08:22:00,39.0,33.0,-100.00,NNE,22,3.0,4.0,77,-99.99,,,-99.99,,2013-01-20 14:22:00,
2013-01-20 08:32:00,40.0,33.0,-100.00,NNE,22,4.0,6.0,76,-99.99,,,-99.99,,2013-01-20 14:32:00,
2013-01-20 08:42:00,40.0,33.0,-100.00,NE,45,2.0,5.0,75,-99.99,,,-99.99,,2013-01-20 14:42:00,
2013-01-20 08:52:00,41.0,33.0,-100.00,NNE,22,3.0,6.0,72,-99.99,,,-99.99,,2013-01-20 14:52:00,
2013-01-20 09:03:00,42.0,33.0,-100.00,NNE,22,4.0,7.0,71,-99.99,,,-99.99,,2013-01-20 15:03:00,
2013-01-20 09:12:00,42.0,32.0,-100.00,NNE,22,5.0,12.0,68,-99.99,,,-99.99,,2013-01-20 15:12:00,
2013-01-20 09:23:00,42.0,32.0,-100.00,NNE,22,6.0,11.0,66,-99.99,,,-99.99,,2013-01-20 15:23:00,
2013-01-20 09:33:00,43.0,32.0,-100.00,NNE,22,6.0,8.0,66,-99.99,,,-99.99,,2013-01-20 15:33:00,
2013-01-20 09:42:00,43.0,31.0,-100.00,NNE,22,7.0,11.0,61,-99.99,,,-99.99,,2013-01-20 15:42:00,
2013-01-20 09:52:00,43.0,31.0,-100.00,NNE,22,6.0,12.0,61,-99.99,,,-99.99,,2013-01-20 15:52:00,
2013-01-20 10:02:00,43.0,30.0,-100.00,NE,45,7.0,12.0,58,-99.99,,,-99.99,,2013-01-20 16:02:00,
2013-01-20 10:12:00,44.0,31.0,-100.00,NNE,22,5.0,11.0,60,-99.99,,,-99.99,,2013-01-20 16:12:00,
2013-01-20 10:23:00,44.0,31.0,-100.00,NE,45,7.0,12.0,59,-99.99,,,-99.99,,2013-01-20 16:23:00,
2013-01-20 10:33:00,45.0,30.0,-100.00,NNE,22,6.0,11.0,58,-99.99,,,-99.99,,2013-01-20 16:33:00,
2013-01-20 10:42:00,45.0,31.0,-100.00,NNE,22,6.0,8.0,58,-99.99,,,-99.99,,2013-01-20 16:42:00,
2013-01-20 10:52:00,45.0,30.0,-100.00,NE,45,6.0,10.0,56,-99.99,,,-99.99,,2013-01-20 16:52:00,
2013-01-20 11:03:00,45.0,30.0,-100.00,NNE,22,6.0,9.0,54,-99.99,,,-99.99,,2013-01-20 17:03:00,
2013-01-20 11:12:00,45.0,29.0,-100.00,NE,45,7.0,12.0,53,-99.99,,,-99.99,,2013-01-20 17:12:00,
2013-01-20 11:22:00,45.0,29.0,-100.00,ENE,67,5.0,10.0,52,-99.99,,,-99.99,,2013-01-20 17:22:00,
2013-01-20 11:33:00,45.0,29.0,-100.00,NE,45,5.0,10.0,53,-99.99,,,-99.99,,2013-01-20 17:33:00,
2013-01-20 11:42:00,46.0,29.0,-100.00,NE,45,5.0,9.0,52,-99.99,,,-99.99,,2013-01-20 17:42:00,
2013-01-20 11:52:00,46.0,27.0,-100.00,NE,45,6.0,12.0,48,-99.99,,,-99.99,,2013-01-20 17:52:00,
2013-01-20 12:02:00,46.0,27.0,-100.00,NE,45,5.0,11.0,48,-99.99,,,-99.99,,2013-01-20 18:02:00,
2013-01-20 12:12:00,46.0,29.0,-100.00,NE,45,6.0,9.0,51,-99.99,,,-99.99,,2013-01-20 18:12:00,
2013-01-20 12:23:00,46.0,29.0,-100.00,NE,45,5.0,10.0,52,-99.99,,,-99.99,,2013-01-20 18:23:00,
2013-01-20 12:33:00,46.0,29.0,-100.00,NNE,22,5.0,8.0,52,-99.99,,,-99.99,,2013-01-20 18:33:00,
2013-01-20 12:42:00,47.0,29.0,-100.00,NNE,22,4.0,7.0,51,-99.99,,,-99.99,,2013-01-20 18:42:00,
2013-01-20 12:53:00,46.0,30.0,-100.00,NE,45,5.0,9.0,52,-99.99,,,-99.99,,2013-01-20 18:53:00,
2013-01-20 13:02:00,46.0,30.0,-100.00,NE,45,6.0,10.0,54,-99.99,,,-99.99,,2013-01-20 19:02:00,
2013-01-20 13:12:00,47.0,30.0,-100.00,NNE,22,5.0,9.0,52,-99.99,,,-99.99,,2013-01-20 19:12:00,
2013-01-20 13:22:00,47.0,30.0,-100.00,NE,45,6.0,10.0,53,-99.99,,,-99.99,,2013-01-20 19:22:00,
2013-01-20 13:33:00,47.0,28.0,-100.00,NNE,22,5.0,9.0,48,-99.99,,,-99.99,,2013-01-20 19:33:00,
2013-01-20 13:42:00,47.0,29.0,-100.00,East,90,6.0,9.0,50,-99.99,,,-99.99,,2013-01-20 19:42:00,
2013-01-20 13:52:00,47.0,28.0,-100.00,NNE,22,5.0,9.0,47,-99.99,,,-99.99,,2013-01-20 19:52:00,
2013-01-20 14:02:00,47.0,28.0,-100.00,East,90,7.0,13.0,47,-99.99,,,-99.99,,2013-01-20 20:02:00,
2013-01-20 14:12:00,47.0,27.0,-100.00,NNE,22,7.0,12.0,46,-99.99,,,-99.99,,2013-01-20 20:12:00,
2013-01-20 14:22:00,47.0,25.0,-100.00,NNE,22,7.0,11.0,43,-99.99,,,-99.99,,2013-01-20 20:22:00,
2013-01-20 14:33:00,47.0,27.0,-100.00,NNE,22,5.0,10.0,46,-99.99,,,-99.99,,2013-01-20 20:33:00,
2013-01-20 14:42:00,47.0,27.0,-100.00,NE,45,6.0,12.0,46,-99.99,,,-99.99,,2013-01-20 20:42:00,
2013-01-20 14:53:00,47.0,28.0,-100.00,NNE,22,5.0,9.0,48,-99.99,,,-99.99,,2013-01-20 20:53:00,
2013-01-20 15:03:00,46.0,29.0,-100.00,NNE,22,6.0,12.0,50,-99.99,,,-99.99,,2013-01-20 21:03:00,
2013-01-20 15:13:00,46.0,29.0,-100.00,NNE,22,6.0,11.0,51,-99.99,,,-99.99,,2013-01-20 21:13:00,
2013-01-20 15:22:00,46.0,28.0,-100.00,NE,45,5.0,9.0,49,-99.99,,,-99.99,,2013-01-20 21:22:00,
2013-01-20 15:33:00,46.0,28.0,-100.00,NNE,22,6.0,11.0,48,-99.99,,,-99.99,,2013-01-20 21:33:00,
2013-01-20 15:43:00,46.0,27.0,-100.00,NNE,22,6.0,9.0,47,-99.99,,,-99.99,,2013-01-20 21:43:00,
2013-01-20 15:52:00,46.0,29.0,-100.00,NNE,22,5.0,9.0,50,-99.99,,,-99.99,,2013-01-20 21:52:00,
2013-01-20 16:03:00,46.0,28.0,-100.00,NNE,22,5.0,8.0,49,-99.99,,,-99.99,,2013-01-20 22:03:00,
2013-01-20 16:12:00,45.0,28.0,-100.00,NNE,22,5.0,7.0,50,-99.99,,,-99.99,,2013-01-20 22:12:00,
2013-01-20 16:22:00,45.0,27.0,-100.00,NNE,22,5.0,9.0,49,-99.99,,,-99.99,,2013-01-20 22:22:00,
2013-01-20 16:33:00,45.0,26.0,-100.00,NNE,22,4.0,6.0,48,-99.99,,,-99.99,,2013-01-20 22:33:00,
2013-01-20 16:43:00,44.0,27.0,-100.00,NNE,22,5.0,8.0,51,-99.99,,,-99.99,,2013-01-20 22:43:00,
2013-01-20 16:52:00,44.0,27.0,-100.00,NNE,22,4.0,7.0,52,-99.99,,,-99.99,,2013-01-20 22:52:00,
2013-01-20 17:03:00,43.0,27.0,-100.00,NNE,22,5.0,7.0,53,-99.99,,,-99.99,,2013-01-20 23:03:00,
2013-01-20 17:12:00,42.0,29.0,-100.00,NNE,22,3.0,6.0,59,-99.99,,,-99.99,,2013-01-20 23:12:00,
2013-01-20 17:23:00,41.0,29.0,-100.00,NNE,22,3.0,5.0,61,-99.99,,,-99.99,,2013-01-20 23:23:00,
2013-01-20 17:33:00,41.0,30.0,-100.00,NNE,22,2.0,4.0,65,-99.99,,,-99.99,,2013-01-20 23:33:00,
2013-01-20 17:42:00,40.0,30.0,-100.00,NNE,22,3.0,4.0,67,-99.99,,,-99.99,,2013-01-20 23:42:00,
2013-01-20 17:52:00,39.0,30.0,-100.00,NE,45,3.0,4.0,70,-99.99,,,-99.99,,2013-01-20 23:52:00,
2013-01-20 18:03:00,39.0,31.0,-100.00,NE,45,2.0,3.0,72,-99.99,,,-99.99,,2013-01-21 00:03:00,
2013-01-20 18:13:00,38.0,31.0,-100.00,NE,45,2.0,5.0,74,-99.99,,,-99.99,,2013-01-21 00:13:00,
2013-01-20 18:22:00,38.0,30.0,-100.00,NE,45,2.0,3.0,73,-99.99,,,-99.99,,2013-01-21 00:22:00,
2013-01-20 18:33:00,37.0,29.0,-100.00,NE,45,3.0,6.0,72,-99.99,,,-99.99,,2013-01-21 00:33:00,
2013-01-20 18:42:00,37.0,29.0,-100.00,NE,45,2.0,4.0,72,-99.99,,,-99.99,,2013-01-21 00:42:00,
2013-01-20 18:53:00,37.0,28.0,-100.00,NE,45,1.0,3.0,72,-99.99,,,-99.99,,2013-01-21 00:53:00,
2013-01-20 19:03:00,36.0,28.0,-100.00,NNE,22,2.0,4.0,72,-99.99,,,-99.99,,2013-01-21 01:03:00,
2013-01-20 19:12:00,36.0,28.0,-100.00,NE,45,2.0,4.0,74,-99.99,,,-99.99,,2013-01-21 01:12:00,
2013-01-20 19:22:00,35.0,27.0,-100.00,NNE,22,2.0,3.0,73,-99.99,,,-99.99,,2013-01-21 01:22:00,
2013-01-20 19:32:00,35.0,29.0,-100.00,NE,45,1.0,3.0,78,-99.99,,,-99.99,,2013-01-21 01:32:00,
2013-01-20 19:43:00,34.0,28.0,-100.00,NE,45,2.0,4.0,76,-99.99,,,-99.99,,2013-01-21 01:43:00,
2013-01-20 19:52:00,35.0,27.0,-100.00,NNE,22,2.0,5.0,73,-99.99,,,-99.99,,2013-01-21 01:52:00,
2013-01-20 20:03:00,34.0,27.0,-100.00,NNE,22,2.0,3.0,75,-99.99,,,-99.99,,2013-01-21 02:03:00,
2013-01-20 20:12:00,34.0,28.0,-100.00,NNE,22,2.0,3.0,77,-99.99,,,-99.99,,2013-01-21 02:12:00,
2013-01-20 20:23:00,35.0,28.0,-100.00,NE,45,2.0,3.0,78,-99.99,,,-99.99,,2013-01-21 02:23:00,
2013-01-20 20:33:00,34.0,28.0,-100.00,NNE,22,2.0,3.0,78,-99.99,,,-99.99,,2013-01-21 02:33:00,
2013-01-20 20:42:00,34.0,28.0,-100.00,NE,45,3.0,4.0,77,-99.99,,,-99.99,,2013-01-21 02:42:00,
2013-01-20 20:52:00,34.0,28.0,-100.00,NE,45,2.0,3.0,78,-99.99,,,-99.99,,2013-01-21 02:52:00,
2013-01-20 21:02:00,34.0,27.0,-100.00,NE,45,3.0,6.0,74,-99.99,,,-99.99,,2013-01-21 03:02:00,
2013-01-20 21:12:00,34.0,27.0,-100.00,NNE,22,3.0,6.0,73,-99.99,,,-99.99,,2013-01-21 03:12:00,
2013-01-20 21:23:00,34.0,27.0,-100.00,NE,45,3.0,4.0,74,-99.99,,,-99.99,,2013-01-21 03:23:00,
2013-01-20 21:33:00,34.0,26.0,-100.00,NE,45,3.0,5.0,73,-99.99,,,-99.99,,2013-01-21 03:33:00,
2013-01-20 21:43:00,33.0,26.0,-100.00,NNE,22,3.0,6.0,73,-99.99,,,-99.99,,2013-01-21 03:43:00,
2013-01-20 21:52:00,33.0,26.0,-100.00,NNE,22,3.0,4.0,75,-99.99,,,-99.99,,2013-01-21 03:52:00,
2013-01-20 22:02:00,33.0,26.0,-100.00,NE,45,3.0,5.0,77,-99.99,,,-99.99,,2013-01-21 04:02:00,
2013-01-20 22:12:00,33.0,26.0,-100.00,NE,45,3.0,4.0,77,-99.99,,,-99.99,,2013-01-21 04:12:00,
2013-01-20 22:23:00,33.0,26.0,-100.00,NE,45,3.0,4.0,78,-99.99,,,-99.99,,2013-01-21 04:23:00,
2013-01-20 22:32:00,32.0,25.0,-100.00,NNE,22,3.0,5.0,76,-99.99,,,-99.99,,2013-01-21 04:32:00,
2013-01-20 22:42:00,32.0,25.0,-100.00,NNE,22,3.0,7.0,74,-99.99,,,-99.99,,2013-01-21 04:42:00,
2013-01-20 22:52:00,32.0,25.0,-100.00,NNE,22,4.0,5.0,74,-99.99,,,-99.99,,2013-01-21 04:52:00,
2013-01-20 23:03:00,32.0,25.0,-100.00,NNE,22,4.0,6.0,73,-99.99,,,-99.99,,2013-01-21 05:03:00,
2013-01-20 23:12:00,32.0,25.0,-100.00,NNE,22,5.0,7.0,73,-99.99,,,-99.99,,2013-01-21 05:12:00,
2013-01-20 23:22:00,32.0,24.0,-100.00,NNE,22,6.0,10.0,72,-99.99,,,-99.99,,2013-01-21 05:22:00,
2013-01-20 23:33:00,32.0,24.0,-100.00,NNE,22,4.0,8.0,73,-99.99,,,-99.99,,2013-01-21 05:33:00,
2013-01-20 23:42:00,32.0,24.0,-100.00,NNE,22,5.0,7.0,73,-99.99,,,-99.99,,2013-01-21 05:42:00,
2013-01-20 23:52:00,32.0,24.0,-100.00,NNE,22,4.0,6.0,74,-99.99,,,-99.99,,2013-01-21 05:52:00,